CST,Max TemperatureF,Mean TemperatureF,Min TemperatureF,Max Dew PointF,MeanDew PointF,Min DewpointF,Max Humidity, Mean Humidity, Min Humidity, Max Sea Level PressureIn, Mean Sea Level PressureIn, Min Sea Level PressureIn, Max VisibilityMiles, Mean VisibilityMiles, Min VisibilityMiles, Max Wind SpeedMPH, Mean Wind SpeedMPH, Max Gust SpeedMPH,PrecipitationIn, CloudCover, Events, WindDirDegrees
2012-11-1,57,43,28,35,30,23,85,64,43,29.99,29.94,29.88,10,10,6,21,7,24,0.00,3,,324
2012-11-2,45,35,25,31,28,23,100,77,53,30.13,30.09,30.01,10,10,10,12,7,15,0.00,0,,68
2012-11-3,48,39,29,33,31,28,92,73,53,30.23,30.18,30.11,10,9,7,13,5,17,T,5,Snow,91
2012-11-4,48,39,30,37,34,29,100,83,65,30.26,30.21,30.16,10,8,4,12,4,15,0.02,7,Rain,148
2012-11-5,45,38,31,38,33,28,100,79,58,30.18,30.14,30.09,10,7,4,16,6,21,0.01,5,Rain,117
2012-11-6,45,40,34,41,37,33,100,91,82,30.08,29.93,29.82,10,6,2,20,10,25,0.21,8,Rain,241
2012-11-7,42,38,34,37,35,31,100,83,65,30.16,30.08,29.91,10,10,5,16,4,20,0.01,8,Rain,340
2012-11-8,52,41,30,38,35,30,100,80,59,30.17,30.08,30.00,10,9,4,18,10,24,0.00,0,,157
2012-11-9,55,44,33,47,41,33,100,83,66,30.00,29.94,29.87,10,8,4,16,9,21,0.00,3,,105
2012-11-10,72,61,50,56,52,46,93,73,52,29.86,29.74,29.65,10,10,6,28,17,37,0.01,1,,159
2012-11-11,62,43,23,56,42,19,100,80,60,30.08,29.80,29.66,10,7,1,26,15,37,1.66,7,Rain-Thunderstorm,261
2012-11-12,31,25,18,21,19,15,92,78,63,30.40,30.21,30.07,10,10,10,26,14,33,0.00,2,,266
2012-11-13,41,28,15,26,21,16,100,73,45,30.51,30.44,30.41,10,10,10,12,6,16,0.00,1,,164
2012-11-14,52,42,32,31,29,26,82,62,42,30.42,30.36,30.30,10,10,10,14,9,20,0.00,2,,167
2012-11-15,54,42,29,34,30,26,96,69,41,30.38,30.31,30.26,10,10,8,16,8,20,0.00,0,,207
2012-11-16,52,38,24,37,32,25,100,77,54,30.47,30.43,30.39,9,7,5,10,4,10,0.00,0,,5
2012-11-17,55,43,31,35,32,30,96,71,46,30.47,30.41,30.35,10,8,4,18,10,24,0.00,0,,154
2012-11-18,57,45,33,34,33,31,89,65,40,30.35,30.28,30.22,10,8,5,16,10,22,0.00,0,,156
2012-11-19,54,46,38,46,40,33,100,80,60,30.20,30.11,30.05,10,8,2,17,8,23,T,5,Rain,156
2012-11-20,45,39,33,45,39,34,100,100,100,30.20,30.13,30.04,1,0,0,8,4,10,0.00,7,Fog,322
2012-11-21,64,48,31,47,40,31,100,72,44,30.19,30.11,29.97,10,5,0,20,10,23,0.00,1,Fog,174
2012-11-22,61,48,35,49,39,28,86,72,57,30.03,29.88,29.73,10,10,10,40,17,48,0.00,2,,228
2012-11-23,35,25,15,27,17,12,92,74,55,30.36,30.23,30.04,10,10,10,43,22,53,0.00,3,,307
2012-11-24,28,19,10,21,16,11,100,87,74,30.35,30.18,29.90,10,10,10,14,8,18,0.00,3,,217
2012-11-25,37,30,22,25,23,20,96,78,59,30.15,29.98,29.86,10,10,10,14,8,17,0.00,2,,314
2012-11-26,28,19,9,23,14,7,92,71,50,30.46,30.33,30.17,10,10,10,23,10,28,0.00,3,,332
2012-11-27,31,19,6,16,11,5,100,74,47,30.45,30.35,30.26,10,10,10,16,8,21,0.00,2,,221
2012-11-28,45,30,15,25,20,14,92,66,40,30.41,30.32,30.21,10,9,7,12,6,14,0.00,0,,221
2012-11-29,50,38,26,34,29,24,92,74,56,30.20,30.09,30.01,10,9,7,13,6,16,0.00,0,,147
2012-11-30,51,40,28,38,33,28,100,81,61,30.11,30.06,30.00,9,5,3,14,7,16,0.00,0,,66